Regional Weather Roundup
Issued by NWS

Home | Current Version | Previous Version | Text Only | Print | Product List | Glossary Off
Versions: 1 2 3 4 5 6 7 8 9 10 11 12 13 14 15 16 17 18 19 20 21 22 23 24 25 26 27 28 29 30 31 32 33 34 35 36 37 38 39 40 41 42 43 44 45 46 47 48 49 50

000
ASUS43 KMKX 212311
RWRWI

WISCONSIN REGIONAL WEATHER ROUNDUP
NATIONAL WEATHER SERVICE MILWAUKEE/SULLIVAN WI
600 PM CDT THU AUG 21 2014

NOTE: "FAIR" INDICATES FEW OR NO CLOUDS BELOW 12,000 FEET WITH NO
SIGNIFICANT WEATHER AND/OR OBSTRUCTIONS TO VISIBILITY.

WIZ001-002-006>008-014>016-023>028-220000-
NORTHWEST WISCONSIN

CITY           SKY/WX    TMP DP  RH WIND       PRES   REMARKS
SUPERIOR ARPT  CLOUDY    62  60  96 NE12G18   29.90R
ASHLAND        CLOUDY    66  62  87 N8        29.90R
HAYWARD        CLOUDY    74  68  81 VRB5      29.88S
SIREN          CLOUDY    73  70  90 E3        29.86S
RICE LAKE      LGT RAIN  74  68  82 E6        29.87F
LADYSMITH      CLOUDY    74  68  83 E8        29.90S
EAU CLAIRE     CLOUDY    78  71  79 S9        29.84S HX  80
MENOMONIE      CLOUDY    77  70  79 SE14      29.83F
NEW RICHMOND   CLOUDY    74  73  96 E5        29.83S
OSCEOLA        CLOUDY    74  73  95 E9        29.85S
$$

WIZ003>005-009-010-017-018-220000-
NORTH CENTRAL WISCONSIN

CITY           SKY/WX    TMP DP  RH WIND       PRES   REMARKS
WOODRUFF       CLOUDY    72  66  82 SE9       29.95R
RHINELANDER    CLOUDY    67  63  87 SE8       29.96R
EAGLE RIVER    CLOUDY    68  64  86 SE7       29.95S
LAND O LAKES   CLOUDY    68  64  85 SE7       29.96S
PHILLIPS       CLOUDY    69  66  89 SE8       29.92R
TOMAHAWK       CLOUDY    67  64  88 SE5       29.94F
MEDFORD        CLOUDY    68  66  93 E7        29.91F
MERRILL        CLOUDY    67  66  98 SE9       29.93F FOG
$$

WIZ029-030-035-036-043>047-220000-
CENTRAL WISCONSIN

CITY           SKY/WX    TMP DP  RH WIND       PRES   REMARKS
WAUSAU         CLOUDY    69  66  90 E9        29.91F FOG
MOSINEE        CLOUDY    70  68  94 E9        29.93S
MARSHFIELD     PTSUNNY   77  70  79 S10       29.90S
STEVENS POINT  CLOUDY    70  67  89 E8        29.93S
WAUPACA        PTSUNNY   75  70  85 E8        29.93S
WAUTOMA        CLOUDY    77  70  79 SE5       29.92R
WISC RAPIDS    PTSUNNY   77  70  79 SE7       29.91S
CAMP DOUGLAS   PTSUNNY   77  75  94 SE6       29.90R
$$

WIZ011>013-019>022-031-037>040-048>050-220000-
NORTHEAST WISCONSIN

CITY           SKY/WX    TMP DP  RH WIND       PRES   REMARKS
ANTIGO         CLOUDY    64  63  99 SE9       29.97S FOG
STURGEON BAY   CLOUDY    66  61  82 E3        29.97R
GREEN BAY      CLOUDY    71  65  81 E6        29.94S
MANITOWOC      CLOUDY    67  64  90 SE8       29.95R
APPLETON       CLOUDY    72  66  83 SE6       29.94R
CLINTONVILLE   CLOUDY    70  64  83 E5        29.93F
OSHKOSH        CLOUDY    72  69  90 E7        29.93R
$$

WIZ032>034-041-042-053>061-220000-
SOUTHWEST WISCONSIN

CITY           SKY/WX    TMP DP  RH WIND       PRES   REMARKS
LA CROSSE      MOSUNNY   83  72  69 SE12      29.85R HX  88
SPARTA         MOSUNNY   80  69  68 S5        29.88S HX  83
VIROQUA        MOCLDY    80  74  83 S6        29.90R HX  84
BOSCOBEL       MOSUNNY   81  71  71 S6        29.89R HX  85
PRAIRIE DU CHI CLOUDY    78  71  76 S3        29.88R HX  81
PLATTEVILLE    FAIR      75  73  92 S8        29.89F
$$

WIZ056-057-062-063-064-067-068-220000-
SOUTH CENTRAL WISCONSIN

CITY           SKY/WX    TMP DP  RH WIND       PRES   REMARKS
BARABOO/DELLS  CLOUDY    76  70  82 SE3       29.90R
LONE ROCK      PTSUNNY   85  73  67 SW5       29.88R HX  91
WATERTOWN      CLOUDY    75  73  91 SE3       29.90F
MADISON        PTSUNNY   77  71  82 S8        29.90R
MIDDLETON      MOCLDY    79  74  85 S7        29.90R HX  83
MONROE         CLOUDY    75  72  88 S13       29.91R
JANESVILLE     MOSUNNY   77  73  88 S8        29.89S
$$

WIZ051-052-058>065-066-070>072-220000-
SOUTHEAST WISCONSIN

CITY           SKY/WX    TMP DP  RH WIND       PRES   REMARKS
MILWAUKEE      PTSUNNY   77  69  76 S5        29.91F
WAUKESHA       PTSUNNY   73  70  88 S5        29.93S
MILWAUKEE/TIMM CLOUDY    75  68  78 SE6       29.92F
RACINE         PTSUNNY   75  69  81 S10       29.93F
BURLINGTON     PTSUNNY   76  72  86 SE7       29.90F
KENOSHA        PTSUNNY   76  71  85 S9        29.92F
FOND DU LAC    CLOUDY    76  69  79 S6        29.92S
SHEBOYGAN      CLOUDY    70  67  90 SE5       29.94S FOG
WEST BEND      CLOUDY    72  66  83 SE3       29.93F
JUNEAU         CLOUDY    75  45  34 S5        29.92S
$$

LSZ147-162-220000-
LAKE SUPERIOR

STATION/POSITION TIME  TEMP    WIND        PRES    WAVE
                       AIR SEA DIR/SP/G            HT/PER
                 (UTC) (F)     (DEG/KT/KT) (MB)    (FT/S)
W MID LAKE BUOY  2250   58 59   60/ 14/ 16 1012.9R   2/ 3
DEVILS ISLAND    2300   61      60/ 15/ 17 1012.7R
PORT WING        2240   64      30/ 15/ 18 1012.2R
SAXON HARBOR     2200   67        CALM     1011.9S
$$

LMZ867-665-643>646-220000-
LAKE MICHIGAN

STATION/POSITION TIME  TEMP    WIND        PRES    WAVE
                       AIR SEA DIR/SP/G            HT/PER
                 (UTC) (F)     (DEG/KT/KT) (MB)    (FT/S)
N MID LAKE BUOY  2250   65 65   50/  8/ 10 1014.1F   0
NORTHPORT PIER   2200   66      90/  5/  9 1014.6S
SISTER BAY       2241   67     110/  7/ 10   N/A
ALGOMA LAKESHORE 2238           90/  7/  9   N/A
KEWAUNEE LAKESHO 2200   65      60/  3/  5 1013.2F
SHEBOYGAN LAKESH 2300   67 67  110/  3/  4 1013.9F
ATWATER BUOY     2300   69      70/  2/  2 1014.3S
MILWAUKEE LAKESH 2200   70     150/  6/  7   N/A
S MID LAKE BUOY  2250   69 69  140/  4/  6 1013.3F   1
KENOSHA   LAKESH 2300   72     180/  6/  8 1012.5F
$$

TC  - TEMPERATURE IN CELSIUS
VSB - VISIBILITY IN STATUTE MILES
WCI - WIND CHILL INDEX
HX  - HEAT INDEX




USA.gov is the U.S. government's official web portal to all federal, state and local government web resources and services.